Terminal Aerodrome Forecast
Issued by NWS

Home | Current Version | Previous Version | Text Only | Print | Product List | Glossary On
Versions: 1 2 3 4 5 6 7 8 9 10 11 12 13 14 15 16 17 18 19 20 21 22 23 24 25 26
153
FTUS46 KSEW 220900 AAA
TAFSEA
TAF AMD
KSEA 220900Z 2209/2312 17005KT P6SM FEW070 BKN090
     FM221600 18005KT P6SM SCT040 BKN060 OVC100
     FM222000 23006KT P6SM SCT040 BKN070
     FM230000 32006KT P6SM SCT045 OVC100
     FM230600 01006KT P6SM OVC050=

USA.gov is the U.S. government's official web portal to all federal, state and local government web resources and services.